Simultaneous Nadir Overpasses (SNOs) Predictions

Prediction of SNOs between METOP-A and NOAA-19 Satellite Orbit:

Table of predicted SNOs for the next 14.0 days since TLE Epoch: 8/30/2014
Index Date (METOP-A) Time (METOP-A) Lat,Lon (METOP-A) SZA (METOP-A ) Date (NOAA-19) Time (NOAA-19) Lat,Lon (NOAA-19) SZA (NOAA-19 ) Distance(km) Time Diff (sec)
1 09/08/2014 20:04:23 74.79,-124.40 69.24 09/08/2014 20:03:16 74.84,-127.30 69.35 84.41 67
2 09/08/2014 20:55:15 -74.29, 41.59 111.24 09/08/2014 20:54:04 -74.28, 41.49 111.23 3.02 71
3 09/08/2014 21:45:56 74.23,-151.21 68.73 09/08/2014 21:45:07 74.24,-151.17 68.74 1.72 49
4 09/08/2014 22:36:38 -74.22, 16.08 111.27 09/08/2014 22:36:06 -74.21, 16.17 111.28 2.77 32
5 09/08/2014 23:27:18 74.22,-176.60 68.74 09/08/2014 23:27:10 74.22,-176.62 68.75 0.94 8
6 09/09/2014 00:18:00 -74.20, -9.31 111.27 09/09/2014 00:18:09 -74.19, -9.29 111.28 1.31 9
7 09/09/2014 01:08:40 74.20, 158.01 68.75 09/09/2014 01:09:13 74.20, 157.92 68.75 2.63 33
8 09/09/2014 01:59:22 -74.18, -34.70 111.26 09/09/2014 02:00:12 -74.17, -34.75 111.27 2.09 50
9 09/09/2014 02:50:03 74.13, 132.50 68.71 09/09/2014 02:51:15 74.13, 132.59 68.70 2.96 72
10 09/09/2014 03:40:57 -73.52, -61.63 111.85 09/09/2014 03:42:03 -73.56, -58.75 111.88 90.91 66




NCC Satellite Simultaneous Nadir Overpasses (SNOs) Prediction Service
